Location: ??
(35.5052°N, 139.7262°E)
Time: 20:45:23
(UTC+00:00)

N. Korean satellite - Pass Details

Date: 29 September 2021
Orbit: 450 x 494 km, 97.3° (Epoch: 28 October)

Event Time Altitude Azimuth Distance (km) Brightness Sun altitude
Rises 18:55:57 0° 35° (NE) 2,552 10.9 -20.9°
Reaches altitude 10° 18:58:54 10° 62° (ENE) 1,675 10.4 -20.3°
Maximum altitude 19:00:46 14° 94° (E) 1,463 10.0 -19.9°
Drops below altitude 10° 19:02:39 10° 125° (SE) 1,679 9.9 -19.5°
Sets 19:05:36 0° 152° (SSE) 2,561 10.5 -18.9°
